Location: Observatoire
(46.1952°N, 5.3391°E)
Time: 13:49:38
(UTC+01:00)

Vanguard 2 Rocket - Pass Details

Date: 18 February 2026
Orbit: 553 x 3286 km, 32.9° (Epoch: 9 March)

Event Time Altitude Azimuth Distance (km) Brightness Sun altitude
Rises 19:09:15 0° 270° (W) 5,558 13.1 -11.1°
Reaches altitude 10° 19:16:09 10° 246° (WSW) 3,816 11.3 -12.3°
Maximum altitude 19:19:36 12° 225° (SW) 3,234 10.4 -12.9°
Drops below altitude 10° 19:22:31 10° 202° (SSW) 3,085 9.9 -13.4°
Sets 19:26:45 0° 173° (S) 3,559 9.9 -14.1°
